Regional Weather Roundup
Issued by NWS

Home | Current Version | Previous Version | Text Only | Print | Product List | Glossary On
Versions: 1 2 3 4 5 6 7 8 9 10 11 12 13 14 15 16 17 18 19 20 21 22 23 24 25 26 27 28 29 30 31 32 33 34 35 36 37 38 39 40 41 42 43 44 45 46 47 48 49 50
000
ASUS43 KLOT 240010
RWRIL

ILLINOIS REGIONAL WEATHER ROUNDUP
NATIONAL WEATHER SERVICE CHICAGO/ROMEOVILLE IL
700 PM CDT WED JUL 23 2014

NOTE: "FAIR" INDICATES FEW OR NO CLOUDS BELOW 12,000 FEET WITH NO
SIGNIFICANT WEATHER AND/OR OBSTRUCTIONS TO VISIBILITY.

* THESE STATIONS ARE NOT UNDER NWS QUALITY CONTROL. THEY ALSO MAY NOT
  REPORT WEATHER SUCH AS PRECIPITATION OR FOG.

ILZ001-002-007-009-015-016-024-240100-
NORTHWEST ILLINOIS

CITY           SKY/WX    TMP DP  RH WIND       PRES   REMARKS
MOLINE         SUNNY     77  54  44 N9        30.11F
6HR MIN TEMP:  77; 6HR MAX TEMP:  81;

STERLING*      SUNNY     75  55  50 NE9       30.13S
SAVANNA*       SUNNY     78  55  46 N7        30.12F
$$

ILZ003-004-008-010-011-017-018-240100-
NORTH CENTRAL ILLINOIS

CITY           SKY/WX    TMP DP  RH WIND       PRES   REMARKS
ROCKFORD       MOSUNNY   75  52  44 N15       30.14S
6HR MIN TEMP:  75; 6HR MAX TEMP:  80;

FREEPORT*      SUNNY     71  55  56 N7        30.16S
ROCHELLE*      SUNNY     74  54  48 N9        30.13S
DE KALB*       SUNNY     71  57  61 NE10      30.14R
PERU*          PTSUNNY   76  55  47 NE13G18   30.12S
$$

ILZ005-006-012>014-019>023-240100-
NORTHEAST ILLINOIS

CITY           SKY/WX    TMP DP  RH WIND       PRES   REMARKS
CHICAGO-OHARE  MOSUNNY   67  49  52 NE15G25   30.15S
6HR MIN TEMP:  67; 6HR MAX TEMP:  75;

CHICAGO-MIDWAY MOSUNNY   68  52  56 N18       30.14S
6HR MIN TEMP:  68; 6HR MAX TEMP:  74;

AURORA         SUNNY     71  55  56 NE12      30.14R
6HR MIN TEMP:  70; 6HR MAX TEMP:  78;

LANSING*       SUNNY     64  51  64 N15G24    30.14S
JOLIET*        SUNNY     69  51  53 NE12      30.14R
WAUKEGAN       SUNNY     63  50  62 N12G24    30.15S
6HR MIN TEMP:  63; 6HR MAX TEMP:  70;

DUPAGE AIRPORT SUNNY     68  54  60 NE15      30.14R
6HR MIN TEMP:  68; 6HR MAX TEMP:  77;

KANKAKEE*      SUNNY     67  53  61 NE14      30.12S
WHEELING       SUNNY     65  51  60 N13       30.16F
6HR MIN TEMP:  65; 6HR MAX TEMP:  74;

MORRIS*        MOSUNNY   72  56  57 E8        30.12R
ROMEOVILLE*    SUNNY     68  52  57 NE17      30.13R
NORTHERLY ISL    N/A     63  52  67 MISG        N/A
$$

LMZ740>746-240100-
SOUTHERN LAKE MICHIGAN

STATION/POSITION SKY/WX   TEMP    WIND        PRES    VSBY  WAVE
                          AIR SEA DIR/SP/G                  HT/PER
                          (F)     (DEG/KT/KT) (MB)    (MI)  (FT/S)
SOUTHERN BUOY              61 60  350/ 21/ 25 1019.9S         7/ 6
WAUKEGAN HARBOR            62      10/ 17/ 19 1022.0F
HARRISON CRIB              63     360/ 22/ 26   N/A
BURNHAM HARBOR             63      10/ 11/ 16   N/A
CALUMET HARBOR             63     340/ 13/ 19 1019.6S
BURNS HARBOR               66      20/ 23     1020.0
MICHIGAN CITY              64     350/ 29/ 34   N/A
$$

ILZ025>027-034>036-040-047-049-050-058-095>099-240100-
WEST-CENTRAL ILLINOIS

CITY           SKY/WX    TMP DP  RH WIND       PRES   REMARKS
QUINCY         SUNNY     77  57  50 NE12      30.11R
GALESBURG*     SUNNY     77  59  54 NE10      30.12F
MACOMB*        MOSUNNY   75  58  56 N9        30.13S
JACKSONVILLE*  MOSUNNY   78  60  53 NE9       30.10S
PITTSFIELD*    MOSUNNY   76  60  56 NE6       30.11R
$$

ILZ028>032-037-038-041>044-048-051>054-059>061-240100-
CENTRAL ILLINOIS

CITY           SKY/WX    TMP DP  RH WIND       PRES   REMARKS
PONTIAC        SUNNY     73  54  49 NE6       30.11S
BLOOMINGTON    SUNNY     32  32 100 NE15      30.12S WCI  22
DECATUR        SUNNY     77  55  47 N15       30.09
PEORIA         MOSUNNY   77  55  46 N7        30.11R
6HR MIN TEMP:  77; 6HR MAX TEMP:  82;

LACON*         MOSUNNY   75  55  50 N6        30.10S
LINCOLN*       MOSUNNY   76  57  51 NE12      30.07R
SPRINGFIELD    MOSUNNY   78  59  51 NE10      30.09S
6HR MIN TEMP:  78; 6HR MAX TEMP:  82;

TAYLORVILLE    SUNNY     73  57  56 NE15G21   30.08R
$$

ILZ033-039-045-046-055>057-062-063-240100-
EAST-CENTRAL ILLINOIS

CITY           SKY/WX    TMP DP  RH WIND       PRES   REMARKS
CHAMPAIGN      SUNNY     71  52  50 N20       30.10R
RANTOUL*       SUNNY     73  48  41 NE17      30.11S
MATTOON        SUNNY     72  54  53 N18       30.07R
PARIS*         SUNNY     72  56  57 N7        30.07S
$$

ILZ079-100>102-240100-
SOUTHWEST ILLINOIS

CITY           SKY/WX    TMP DP  RH WIND       PRES   REMARKS
ALTON          MOSUNNY   77  64  65 N12       30.07R
BELLEVILLE     PTSUNNY   81  65  59 NE14      30.04R HX  82
CAHOKIA*       MOSUNNY   82  64  54 NE13      30.04R HX  83
SPARTA*        PTSUNNY   77  64  65 N9        30.04R
$$

ILZ064>066-069>071-074>076-080>082-084>086-088>090-092>094-240100-
SOUTH-CENTRAL ILLINOIS

CITY           SKY/WX    TMP DP  RH WIND       PRES   REMARKS
CARBONDALE     CLOUDY    79  70  74 N6        30.01R HX  82
6HR MIN TEMP:  73; 6HR MAX TEMP:  83;

CAIRO*         MOSUNNY   80  69  70 NW5       30.00R HX  82
MARION         CLOUDY    79  70  73 N10       30.02R HX  81
MT. VERNON     SUNNY     79  64  61 N9        30.03R HX  81
CENTRALIA*     SUNNY     80  62  53 N9        30.04R HX  81
SALEM*         MOSUNNY   79  64  60 N12       30.05R HX  81
METROPOLIS*    MOSUNNY   79  67  66 N3        29.98S HX  81
$$

ILZ067-068-072-073-078-083-087-091-240100-
SOUTHEAST ILLINOIS

CITY           SKY/WX    TMP DP  RH WIND       PRES   REMARKS
FLORA*         SUNNY     76  63  62 N13       30.03S
FAIRFIELD*     MOSUNNY   79  72  78 N5        30.01S HX  82
HARRISBURG*    PTSUNNY   76  72  87 NE6       30.02R
ROBINSON*      PTSUNNY   78  65  64 N9G20     30.03S
CARMI*         CLOUDY    75  72  88 N6        30.00S
$$

ABBREVIATIONS USED IN REMARKS
   TC - TEMPERATURE IN CELSIUS
  WCI - WIND CHILL INDEX
   HX - HEAT INDEX
  VSB - VISIBILITY
$$



USA.gov is the U.S. government's official web portal to all federal, state and local government web resources and services.